Vertical_Velocity
-1 10 -1 -6 1 3 2 3 2 -6 -6 9 -1 -1 -4 -4 2 -3 -1 -2 -3 -1 -1 -4 -11 -6 -4 -4 -8 -7 -4 -6 -3 -0 -4 4 7 -5 6 5 3 1 -6 4
9 -2 -8 -0 0 2 1 2 -6 -7 -2 10 -2 -5 -4 0 5 1 1 -2 -1 -9 -9 -7 -6 -9 -4 -6 -4 -11 -2 -4 -11 3 -1 5 9 22 0 12 -6 12 -2 -4
1 -5 -0 1 -0 4 -1 2 -1 7 -4 -4 10 -4 0 12 -4 -3 -3 1 -2 -2 -4 -6 -7 -4 -6 -5 -2 -0 -16 -2 -8 9 -0 -4 -5 -2 27 11 6 11 0 -13
-1 -10 1 1 0 4 3 -0 1 1 5 0 7 -6 -2 4 3 -2 -2 -2 -1 -4 -5 -6 -3 -7 -5 -4 -2 -3 -6 -6 -5 1 1 -3 -2 -1 18 -10 9 -3 -2 -1
-21 2 1 3 -10 -0 -9 1 2 2 2 10 -10 15 12 -2 -3 -1 -1 -1 -2 0 -2 -1 -2 -1 -4 -2 -3 -2 -2 -2 -3 -7 4 -5 -5 -6 -5 24 16 3 1 15
-9 2 4 -6 -2 -1 -0 2 2 4 4 8 -11 6 7 0 5 -2 -2 -3 -1 -3 -4 -2 -2 -3 -3 -0 3 -3 -2 2 1 -4 6 -3 -2 -9 15 29 77 5 7 4
2 -6 -1 3 6 6 7 6 -2 6 8 -12 -2 3 8 3 2 5 3 1 -1 -3 -2 -3 -3 -2 -4 -2 -1 0 -6 2 3 -4 3 8 9 1 -9 16 -52 120 33 19
2 14 2 -1 -4 0 -5 5 4 2 2 -2 -3 3 10 1 2 0 1 4 -3 -2 -0 -1 1 1 -1 1 4 2 -5 1 4 -2 7 15 9 0 -3 5 11 -46 -19 10
2 -2 8 -1 -1 3 -8 4 -5 5 -0 11 -4 6 12 0 -1 -3 -2 -3 1 -3 -0 -1 -0 -2 -1 2 5 -3 -4 1 6 6 4 11 20 7 -2 0 -10 12 -24 16
-3 -1 -2 1 8 -2 8 -1 1 1 1 -0 -3 1 2 -3 -1 -1 -2 -1 -2 2 -3 -2 -2 -1 1 9 2 -8 5 4 10 7 -1 24 16 13 -4 -1 -2 10 -3 8
1 3 -6 13 1 -3 9 3 2 5 5 2 1 4 3 2 2 2 1 1 1 0 -1 0 -1 0 3 12 -12 -2 -5 4 8 11 5 28 4 10 6 -1 -10 6 11 17
-3 -1 -1 -10 -6 1 -2 -3 1 4 -6 -1 4 5 1 0 1 1 1 1 2 3 1 -1 -2 0 1 -2 -9 -3 -2 1 -6 47 16 11 11 13 4 2 -7 -25 -31 -5
-1 1 1 6 7 5 2 -0 -0 -0 2 -4 4 5 1 0 -0 1 -0 -1 0 1 1 -1 -4 -3 1 -4 0 -6 -2 -1 8 -1 21 5 -1 6 3 7 11 12 2 13
1 0 3 4 4 -2 1 -1 -1 7 4 -2 1 2 3 1 0 -0 -1 0 1 0 -1 1 -1 1 2 1 -0 5 2 2 1 5 10 5 -1 -1 2 2 -6 -8 5 -4
2 1 -0 -0 0 -1 1 0 -1 2 -1 5 2 -2 0 1 1 2 2 1 -2 1 -2 -1 -4 -4 -4 -1 3 3 -1 7 2 -5 -1 -12 -3 0 16 2 -4 10 4 -3
1 0 -0 -1 -0 -0 -0 -0 0 -0 1 0 -1 2 -1 1 1 -1 1 -0 -1 -1 0 -2 -3 -2 -3 -4 -3 1 4 -5 -10 -4 -11 21 -6 18 -3 -8 2 -4 7 -14
1 1 2 -4 -0 2 8 -4 -0 0 -0 -4 1 1 -0 3 1 0 2 -0 1 1 0 -2 -3 -2 -1 3 -6 -5 -0 6 5 9 5 -2 2 3 -4 8 -1 -5 3 -10
-0 2 1 1 4 6 5 -0 -2 -4 0 1 1 2 -1 -1 1 0 -1 -1 -2 2 1 0 -0 -1 3 2 4 3 2 -1 6 6 3 2 16 -3 -2 7 4 3 4 -11
1 1 -0 2 -1 5 4 -1 -4 -5 2 -2 -3 2 1 1 -2 4 -1 -2 -4 3 -0 2 4 1 0 0 4 1 1 0 -1 -4 -9 -4 -4 -2 3 -0 -1 -2 -3 -1
2 3 4 1 3 1 6 0 -1 1 2 -2 -4 -0 -3 2 3 4 -1 -2 -3 3 1 -1 -1 -0 2 2 -3 -2 -3 -5 -4 -1 -2 -2 1 -1 -4 -5 -9 -6 -1 -4
2 3 -1 -1 0 4 1 2 -3 10 5 -1 -2 -4 -1 -2 2 -4 -4 -0 -5 7 -4 2 -2 -1 -0 1 -0 -2 7 4 1 2 2 -0 -3 -3 -1 -1 -3 -3 -4 -3
-6 1 -1 2 5 5 -1 4 9 4 5 -3 1 3 8 -2 -1 -2 -1 -2 -4 -2 3 2 -1 -1 -1 -1 1 -4 -2 4 -1 -3 -2 -3 1 -0 -1 -2 2 2 3 4
0 5 1 5 5 1 0 -2 -1 -2 -3 1 -4 -0 -2 -2 -1 -4 -3 6 2 2 -1 -1 -2 -1 -2 -2 -2 -0 -0 1 -2 -4 -4 -2 -3 -1 -7 -8 -8 -5 -4 -3
2 -1 -2 5 5 0 -1 2 0 0 0 1 -0 -2 -1 -5 -3 1 -0 2 2 2 -0 -1 -2 -1 -2 -2 -2 -3 -4 -4 0 -3 -3 -1 -5 -1 3 -1 -3 -5 -7 -6
5 -2 -0 3 4 3 1 2 -1 3 -1 -2 0 -1 -2 -3 0 1 2 1 1 -1 -1 -1 -2 0 0 -1 -2 -2 -2 -2 1 0 1 -2 -2 -4 -2 -1 -1 1 -0 -1
-2 -3 -3 -2 -8 -4 -6 -0 -0 -6 -4 -1 -3 -1 -1 -0 -2 -1 0 -0 -0 1 -0 -1 -1 0 -1 -1 0 -1 -3 -2 -3 -5 -3 -2 -1 -5 -2 -1 3 7 1 -6
Height
1495 1495 1488 1479 1479 1481 1484 1483 1483 1475 1470 1474 1477 1475 1473 1472 1474 1483 1489 1495 1496 1495 1493 1490 1484 1476 1471 1467 1462 1458 1455 1450 1447 1446 1449 1449 1451 1452 1455 1456 1462 1462 1462 1467
1491 1490 1481 1480 1482 1484 1485 1484 1481 1471 1468 1471 1472 1473 1467 1472 1481 1490 1496 1498 1497 1495 1492 1489 1484 1476 1469 1463 1457 1454 1449 1446 1446 1445 1442 1442 1441 1444 1446 1448 1453 1455 1456 1460
1484 1474 1480 1482 1481 1483 1479 1478 1476 1478 1475 1473 1469 1467 1462 1477 1486 1493 1498 1501 1500 1498 1493 1487 1481 1475 1467 1459 1454 1449 1445 1440 1438 1437 1435 1431 1430 1430 1436 1439 1441 1446 1449 1450
1479 1474 1475 1481 1481 1477 1480 1474 1480 1481 1481 1479 1463 1474 1459 1467 1483 1494 1498 1499 1499 1497 1493 1487 1480 1473 1465 1458 1451 1445 1440 1435 1430 1429 1426 1425 1423 1421 1427 1426 1430 1436 1440 1440
1480 1474 1479 1480 1476 1476 1479 1478 1481 1481 1480 1476 1466 1464 1469 1473 1491 1499 1503 1501 1502 1499 1493 1487 1480 1472 1464 1456 1448 1441 1435 1431 1426 1422 1421 1417 1415 1415 1416 1418 1421 1424 1430 1437
1476 1473 1475 1473 1471 1478 1479 1480 1474 1469 1470 1475 1446 1449 1481 1497 1506 1506 1504 1504 1503 1498 1495 1487 1481 1471 1461 1454 1445 1438 1431 1426 1421 1417 1414 1411 1409 1407 1409 1415 1414 1410 1421 1432
1473 1469 1470 1474 1475 1475 1479 1479 1476 1470 1471 1465 1434 1444 1492 1502 1505 1505 1506 1506 1504 1501 1495 1487 1478 1467 1459 1451 1442 1435 1429 1424 1417 1413 1410 1406 1404 1402 1401 1402 1401 1360 1404 1424
1466 1466 1462 1467 1470 1464 1470 1469 1476 1477 1464 1457 1444 1462 1501 1504 1506 1507 1507 1508 1506 1502 1496 1488 1480 1469 1460 1451 1442 1434 1428 1422 1416 1412 1406 1400 1398 1398 1398 1383 1395 1403 1408 1423
1466 1455 1450 1461 1465 1468 1468 1471 1466 1471 1468 1468 1463 1492 1491 1497 1503 1508 1508 1508 1505 1502 1496 1489 1481 1471 1461 1452 1443 1436 1430 1423 1418 1411 1403 1400 1393 1393 1398 1401 1407 1413 1406 1416
1470 1475 1457 1459 1465 1466 1469 1466 1476 1472 1479 1465 1444 1478 1491 1500 1507 1509 1508 1507 1505 1504 1496 1489 1481 1473 1464 1455 1447 1441 1433 1422 1420 1411 1406 1399 1390 1391 1399 1402 1406 1411 1416 1418
1475 1477 1465 1460 1465 1466 1468 1469 1469 1472 1469 1471 1464 1483 1504 1510 1511 1510 1510 1508 1507 1502 1497 1491 1484 1477 1469 1459 1452 1447 1432 1421 1421 1414 1408 1398 1391 1393 1399 1406 1408 1418 1415 1415
1474 1482 1481 1463 1456 1456 1460 1464 1468 1479 1466 1457 1467 1488 1507 1511 1511 1511 1511 1509 1507 1503 1499 1493 1486 1480 1473 1464 1459 1453 1445 1436 1419 1421 1407 1401 1400 1403 1402 1405 1404 1416 1410 1427
1474 1481 1475 1465 1461 1459 1461 1466 1466 1472 1481 1473 1475 1490 1507 1508 1510 1512 1511 1510 1507 1503 1499 1494 1488 1481 1477 1472 1467 1459 1452 1441 1428 1421 1414 1408 1408 1408 1410 1415 1417 1419 1420 1418
1475 1471 1470 1477 1474 1467 1473 1474 1475 1474 1474 1466 1479 1499 1506 1507 1510 1512 1512 1510 1507 1505 1500 1496 1490 1485 1480 1477 1472 1466 1457 1448 1441 1433 1422 1418 1419 1420 1420 1417 1418 1422 1426 1426
1476 1477 1477 1471 1474 1476 1484 1483 1485 1477 1476 1470 1485 1491 1503 1508 1511 1512 1512 1510 1508 1507 1503 1499 1495 1490 1485 1480 1476 1471 1464 1455 1448 1445 1438 1436 1436 1435 1434 1426 1432 1433 1430 1437
1476 1476 1485 1486 1476 1476 1489 1489 1490 1478 1479 1482 1487 1500 1505 1508 1510 1511 1512 1511 1511 1510 1508 1504 1500 1496 1493 1488 1481 1475 1471 1466 1461 1454 1446 1446 1446 1446 1440 1440 1442 1441 1439 1434
1471 1473 1476 1472 1474 1473 1481 1484 1480 1478 1476 1476 1477 1491 1502 1505 1509 1512 1512 1512 1512 1512 1510 1507 1504 1501 1499 1495 1489 1482 1475 1469 1462 1459 1455 1454 1457 1448 1447 1447 1447 1444 1443 1447
1465 1464 1464 1463 1471 1469 1482 1476 1476 1480 1483 1483 1488 1495 1497 1503 1508 1511 1511 1512 1512 1512 1511 1509 1507 1504 1502 1499 1495 1489 1482 1476 1471 1464 1461 1460 1456 1452 1453 1451 1445 1443 1440 1444
1460 1463 1463 1461 1460 1478 1481 1473 1475 1475 1484 1485 1487 1493 1498 1504 1507 1511 1511 1511 1511 1513 1512 1511 1508 1505 1503 1499 1496 1491 1485 1479 1473 1469 1466 1464 1462 1461 1458 1454 1452 1451 1452 1451
1459 1457 1463 1454 1455 1453 1461 1466 1472 1473 1474 1481 1485 1489 1495 1500 1502 1508 1511 1510 1511 1513 1513 1512 1510 1508 1504 1501 1497 1494 1490 1487 1483 1481 1477 1474 1471 1467 1463 1461 1461 1462 1461 1459
1457 1457 1459 1455 1452 1468 1465 1470 1475 1476 1478 1477 1482 1488 1492 1496 1501 1505 1508 1509 1511 1513 1514 1513 1511 1509 1507 1505 1502 1498 1497 1493 1490 1487 1483 1479 1477 1474 1472 1471 1470 1469 1467 1466
1448 1451 1450 1450 1452 1464 1471 1477 1476 1478 1477 1480 1482 1486 1491 1495 1502 1505 1509 1509 1511 1514 1515 1513 1512 1510 1509 1507 1505 1501 1498 1498 1495 1491 1488 1487 1485 1482 1479 1476 1475 1473 1470 1467
1448 1447 1454 1467 1471 1476 1477 1477 1478 1480 1481 1484 1485 1490 1493 1497 1502 1506 1509 1512 1513 1515 1515 1515 1514 1513 1511 1508 1506 1504 1503 1503 1500 1497 1495 1494 1491 1490 1486 1483 1479 1477 1474 1470
1449 1453 1460 1469 1478 1478 1479 1479 1480 1482 1484 1487 1490 1493 1496 1499 1504 1508 1511 1512 1514 1515 1515 1515 1515 1515 1513 1511 1509 1506 1505 1504 1504 1501 1499 1497 1495 1494 1491 1488 1484 1480 1478 1475
1448 1452 1464 1474 1477 1479 1479 1480 1482 1485 1487 1490 1493 1496 1499 1502 1506 1508 1511 1512 1514 1515 1516 1516 1516 1516 1514 1512 1510 1508 1506 1505 1504 1501 1500 1497 1495 1494 1493 1490 1488 1484 1481 1478
1447 1454 1461 1458 1465 1468 1474 1479 1482 1485 1489 1493 1495 1498 1501 1504 1506 1508 1511 1513 1514 1515 1515 1516 1515 1515 1514 1512 1510 1508 1506 1505 1503 1502 1501 1499 1498 1496 1495 1492 1490 1488 1484 1481